Torna al catalogo

CZ-6A DEB

AttivoPO
NORAD 61152·DEBRIS·🇨🇳 China

Lanciato Aug 6, 2024 da Taiyuan Satellite Launch Center

Loading…

Prossimi Passaggi (prossime 24 ore)

TLE

AggiornatoSource: Space-Track

Epoca: Sep 14, 2026, 10:52 UTC

1 61152U 24140QW  26257.45324073  .00001001  00000-0  21268-3 0  9990
2 61152  89.0327 263.2234 0112564 325.6343  33.7619 14.54451010109445

Traccia CZ-6A DEB in tempo reale con AllMySat

Download on the App Store